Lapse_Rate
7.2 6.6 6.5 6.6 6.5 6.6 6.4 6.6 6.5 6.4 6.5 6.5 6.5 6.5 6.5 6.8 6.9 6.9 6.8 2.9 3.5 3.0 8.0 8.6 8.8 8.4 6.8 4.9 3.4 3.5 4.3 5.5 6.3 7.1 7.5 7.8 6.9 6.8 8.3 5.8 7.3 6.6 7.0 7.6
6.5 6.5 6.5 6.5 6.4 6.5 6.5 6.5 6.4 6.5 6.5 6.5 6.5 6.5 6.4 6.5 6.6 6.9 6.9 7.2 1.8 2.1 5.8 8.2 8.6 8.7 8.8 6.9 5.3 5.5 6.6 6.4 6.4 7.8 8.0 7.6 6.2 7.2 5.7 6.9 6.5 5.8 6.5 7.5
6.5 6.5 6.5 6.5 6.5 6.5 6.5 6.5 6.5 6.5 6.5 6.5 6.5 6.4 6.4 6.5 6.7 7.1 7.3 6.3 3.4 4.6 7.7 8.1 8.3 8.5 8.7 8.5 8.3 7.8 7.3 7.3 7.0 7.7 7.8 8.1 6.6 6.8 7.1 7.4 6.5 6.7 6.5 6.5
6.6 6.6 6.5 6.5 6.5 6.5 6.5 6.5 6.5 6.5 6.5 6.5 6.6 6.5 6.4 6.5 6.5 6.5 6.9 7.2 7.5 7.7 8.0 8.2 8.2 8.5 8.7 8.7 8.6 8.3 8.4 7.9 8.0 8.0 8.1 8.1 7.0 7.4 7.1 7.7 7.7 7.8 7.1 6.3
6.5 6.5 6.5 6.5 6.6 6.5 6.5 6.5 6.5 6.6 6.5 6.5 6.5 6.5 6.5 6.5 6.5 6.5 6.7 7.1 7.5 7.8 8.0 7.9 7.2 8.2 8.6 8.7 8.8 8.5 8.4 8.1 8.2 7.1 7.1 7.6 6.9 6.9 8.3 7.7 7.4 6.4 6.9 6.8
6.5 7.1 6.6 6.5 6.4 6.5 6.5 6.5 6.5 6.5 6.5 6.6 6.5 6.5 6.5 6.5 6.6 6.5 6.8 7.1 7.4 7.8 8.0 8.2 8.4 8.6 8.2 8.8 8.6 8.6 7.8 7.4 7.7 7.8 7.3 7.7 7.7 7.0 6.2 5.7 6.9 7.2 7.1 6.4
6.5 6.5 6.5 6.7 6.5 6.4 6.5 6.4 6.4 6.5 6.5 6.5 6.5 6.5 6.5 6.5 6.5 6.5 6.5 7.0 7.5 7.8 7.9 8.0 8.0 8.1 7.6 8.2 8.6 8.6 7.7 7.4 8.3 8.5 8.5 8.2 7.6 8.3 7.6 7.6 7.8 7.2 7.3 7.4
6.5 6.4 6.6 6.6 6.5 6.4 6.5 6.5 6.5 6.5 6.6 6.5 6.5 6.5 6.5 6.5 6.8 7.1 7.2 7.4 7.5 7.6 7.8 8.0 8.0 8.0 8.3 8.3 8.4 8.4 8.0 7.4 7.5 8.5 7.8 7.7 7.9 8.0 7.3 7.4 7.5 7.9 7.7 7.7
6.5 6.5 6.5 6.4 6.6 6.5 6.5 6.5 6.5 6.5 6.5 6.4 6.5 6.5 6.6 6.4 6.5 6.7 6.8 7.1 7.3 7.5 7.8 8.0 8.2 8.5 8.5 8.5 8.4 8.1 8.3 8.1 8.5 8.7 7.3 7.4 7.7 8.3 8.0 7.2 7.2 7.5 7.1 8.5
6.5 6.5 6.6 6.5 6.6 6.6 6.5 6.5 6.5 6.5 6.5 6.5 6.5 6.5 6.5 6.6 6.5 6.4 6.5 6.9 7.3 7.6 7.9 8.0 8.2 8.3 8.6 8.7 8.8 8.7 8.7 8.6 8.7 7.9 7.9 7.9 8.4 9.0 8.5 8.9 8.8 8.9 8.8 8.9
6.5 6.4 6.5 6.5 6.5 6.4 6.5 6.5 6.5 6.4 6.5 6.5 6.6 6.5 6.5 6.5 6.5 6.5 6.6 7.1 7.3 7.6 7.8 8.0 8.2 8.3 8.7 8.6 8.8 8.8 8.9 8.7 8.2 8.3 7.9 7.6 8.6 8.6 8.6 8.5 8.4 8.8 8.9 8.7
6.5 6.4 6.5 6.5 6.5 6.5 6.5 6.6 6.5 6.5 6.5 6.5 6.5 6.5 6.4 6.4 6.6 6.7 6.8 7.1 7.5 7.8 7.9 8.0 8.3 8.4 8.4 8.3 8.5 8.4 8.0 8.6 8.8 8.0 7.2 6.8 8.2 9.0 8.8 9.0 9.1 8.7 8.9 8.7
6.5 6.5 6.6 6.5 6.5 6.5 6.5 6.5 6.5 6.6 6.6 6.6 6.5 6.4 6.5 6.7 6.5 6.8 6.7 7.2 6.4 7.5 7.8 8.1 8.0 7.7 8.1 8.2 7.9 8.1 8.2 8.5 8.5 7.8 8.3 7.1 8.5 8.7 9.0 8.3 8.3 8.4 6.8 7.0
6.3 6.4 6.5 6.4 6.4 6.4 6.5 6.4 6.5 6.5 6.5 6.6 6.5 6.4 6.5 6.5 6.5 6.7 6.9 7.1 7.3 7.3 7.2 7.7 7.9 8.0 7.9 7.5 7.6 7.8 8.0 8.2 7.9 8.3 8.3 7.7 8.5 8.7 8.1 7.2 7.3 7.1 7.1 7.2
6.5 6.5 6.5 6.4 6.5 6.4 6.5 6.5 6.5 6.5 6.4 6.6 6.6 6.5 6.5 6.5 6.5 6.3 7.1 7.1 7.2 7.2 7.3 7.5 7.9 7.6 7.5 7.6 8.1 8.3 8.3 7.7 7.4 8.2 6.9 7.0 8.5 8.8 8.6 7.2 6.7 6.4 6.9 6.7
6.5 6.5 6.5 6.5 6.5 6.5 6.5 6.5 6.5 6.5 6.4 6.4 6.5 6.5 6.5 6.7 4.9 5.7 7.0 7.1 7.1 7.1 7.6 7.7 7.5 7.4 7.9 8.1 7.6 8.4 7.7 7.7 7.3 8.0 8.2 8.3 8.7 8.9 7.8 7.3 6.5 6.6 6.8 7.1
6.5 6.5 6.5 6.6 6.5 6.5 6.5 6.5 6.5 6.5 6.5 6.5 6.5 6.5 6.4 6.5 6.5 7.1 7.0 7.2 7.2 7.3 7.2 7.4 7.6 8.0 7.3 6.5 7.8 7.7 6.7 7.7 7.7 8.4 8.5 8.7 9.0 8.7 7.2 6.4 6.9 7.4 7.1 7.3
6.5 6.5 6.5 6.5 6.4 6.5 6.4 6.5 6.5 6.4 6.5 6.5 6.5 6.5 6.6 6.6 5.3 7.4 7.6 7.3 7.4 7.5 7.2 7.2 7.1 7.5 7.3 8.1 8.7 8.2 7.8 7.7 8.3 8.4 8.9 8.5 7.7 6.8 6.5 7.2 7.0 7.1 6.7 7.1
6.5 6.5 6.5 6.5 6.5 6.5 6.4 6.4 6.5 6.5 6.5 6.5 6.5 6.5 6.8 7.2 7.3 7.0 7.8 7.9 7.6 7.3 7.1 7.1 8.5 7.7 7.8 7.3 6.9 6.0 5.6 5.6 8.2 7.7 7.2 6.2 6.2 6.9 7.1 7.5 6.6 6.4 7.0 7.2
6.5 6.5 6.5 6.6 6.5 6.5 6.5 6.5 6.9 6.4 6.6 6.5 6.6 6.6 6.6 6.8 6.5 6.5 7.6 6.4 7.0 7.9 7.2 7.1 8.4 8.1 8.7 7.9 7.5 5.5 5.6 5.1 5.1 3.4 5.3 6.4 4.9 4.0 6.7 7.4 6.5 6.0 5.8 6.1
6.5 6.5 6.6 6.5 6.4 6.5 6.5 6.6 7.0 6.4 6.5 6.7 7.0 7.0 6.8 6.5 6.9 7.5 8.0 8.1 8.3 8.4 8.3 8.6 7.9 7.4 8.0 7.0 5.7 5.1 4.4 3.7 2.9 5.1 7.6 5.9 5.7 5.9 7.0 6.2 6.0 6.3 7.3 7.3
6.5 6.5 6.6 6.5 6.5 6.4 7.0 6.9 6.5 6.5 6.3 7.2 7.2 7.3 7.2 7.5 7.6 7.8 8.0 8.0 8.2 8.3 8.5 7.8 7.5 8.0 7.7 6.5 5.8 4.9 4.5 5.2 5.9 5.5 4.6 5.8 6.0 5.5 6.0 6.3 7.7 7.6 7.8 7.5
6.6 6.5 6.6 6.5 6.5 6.7 5.7 6.2 5.5 7.8 7.4 7.3 7.3 7.7 7.7 7.7 7.7 7.8 7.9 8.1 8.2 8.4 8.4 8.7 8.5 8.5 8.5 7.1 5.9 4.3 4.7 5.0 4.8 4.7 6.0 7.2 7.1 7.2 7.6 7.4 8.4 8.0 7.2 6.8
6.5 6.4 6.6 6.6 6.5 6.4 3.7 4.6 8.1 7.7 7.6 7.8 8.0 7.9 8.0 7.6 7.9 7.9 8.0 8.1 8.2 8.4 8.4 8.7 8.6 8.2 7.1 6.4 5.5 4.7 4.4 4.4 5.2 6.5 7.6 6.9 7.5 8.1 8.4 8.6 8.3 8.4 7.5 6.8
6.5 6.4 6.5 6.5 6.5 5.5 3.6 3.9 7.2 7.8 8.0 8.0 8.1 8.1 8.0 8.0 8.0 8.1 8.1 8.1 8.3 8.4 8.4 8.5 8.4 8.5 7.5 6.0 5.3 4.7 4.2 5.6 6.8 7.2 8.1 7.0 8.5 8.7 8.7 8.1 7.6 7.9 6.3 6.8
6.7 6.5 6.5 6.4 6.3 6.7 6.3 7.4 7.9 7.6 7.7 7.9 7.9 7.9 8.2 8.2 8.1 8.2 8.1 8.3 8.1 8.1 7.7 8.3 8.5 8.6 7.8 6.3 4.8 4.5 4.8 5.0 7.5 8.5 8.5 7.4 8.2 8.3 8.4 8.4 6.6 2.7 5.0 2.6
Wind_Speed
18 15 17 21 20 9 16 14 21 18 7 3 11 9 19 17 3 16 18 19 13 22 9 15 12 16 16 17 12 9 10 8 6 5 5 5 7 5 3 6 4 7 8 5
18 19 21 22 19 5 17 12 9 8 6 7 9 6 12 9 6 6 25 27 19 17 15 14 11 11 11 20 19 16 14 10 6 4 5 3 3 7 2 1 4 4 4 4
20 21 20 21 17 16 14 14 4 8 14 9 10 11 5 1 1 7 7 26 18 20 14 16 15 13 12 10 11 12 13 9 8 6 4 1 3 2 2 3 3 3 2 4
20 22 21 19 22 9 20 16 5 11 10 10 8 10 14 15 11 16 8 8 16 17 13 16 16 15 14 12 10 10 8 9 8 6 3 4 3 3 4 3 3 1 7 7
20 21 22 17 22 27 9 5 9 17 10 16 14 9 6 13 6 21 10 10 9 15 14 13 13 14 15 13 10 9 8 8 7 7 4 2 3 5 3 3 4 6 4 7
21 17 16 22 21 19 14 16 15 13 13 13 16 12 10 10 18 29 20 12 8 10 17 11 17 15 16 12 12 11 10 8 6 7 6 3 3 4 4 5 4 4 2 1
16 19 18 22 17 13 17 16 9 12 12 4 15 9 7 17 17 7 11 9 11 7 13 11 12 11 14 13 12 10 10 8 8 7 6 5 4 2 2 2 3 6 4 6
16 14 21 19 18 19 22 15 13 12 5 12 6 6 5 12 10 7 8 13 12 9 13 13 12 11 10 13 12 12 10 9 7 6 6 4 3 3 1 5 4 4 4 5
15 16 20 15 17 22 9 14 19 13 3 10 15 11 18 12 8 7 10 17 13 11 11 15 15 12 12 11 12 12 10 9 7 7 6 5 2 1 4 4 4 5 6 5
21 14 16 18 19 19 17 17 11 11 10 6 15 7 9 8 6 4 10 15 15 14 11 12 11 14 11 12 11 11 10 8 8 10 7 6 4 2 2 1 3 3 4 3
21 19 13 19 18 19 16 13 6 18 13 5 6 9 5 3 5 9 8 13 16 15 11 13 12 11 11 11 10 11 10 10 9 8 6 6 4 5 3 3 4 3 3 4
20 14 15 17 22 21 17 20 23 15 12 12 8 9 13 4 5 9 10 10 18 16 13 12 13 12 11 9 10 11 10 10 8 8 6 5 3 2 4 2 2 4 1 4
14 17 15 15 15 18 18 21 22 17 17 9 4 6 11 21 22 14 8 12 13 15 14 13 12 11 11 9 7 8 8 7 11 7 6 6 5 4 1 1 4 5 6 6
13 18 20 9 14 15 19 23 18 18 12 8 7 10 3 11 18 16 9 11 16 13 16 14 13 10 9 9 7 8 6 7 9 7 7 6 4 4 5 5 7 7 7 6
16 20 22 8 20 23 21 23 18 9 16 6 10 9 7 9 10 17 10 11 10 13 17 15 14 12 10 10 8 8 7 8 8 5 7 5 4 0 3 5 6 6 6 6
18 18 19 10 6 15 19 12 6 8 18 10 7 20 15 13 25 17 9 7 8 14 13 13 13 14 11 11 7 8 8 8 8 6 5 5 3 1 2 4 5 7 7 6
18 16 16 11 2 11 20 10 11 2 13 10 4 14 19 9 16 25 9 8 9 12 16 13 12 10 8 9 9 9 6 7 5 5 5 4 2 1 4 5 5 5 6 7
17 17 14 14 19 24 15 13 18 18 14 27 4 20 23 29 37 9 10 9 11 12 14 11 10 6 12 12 11 10 10 8 4 2 2 0 5 6 6 4 6 7 7 7
20 16 13 13 13 9 18 16 4 5 9 6 2 7 20 17 15 10 10 9 12 15 11 9 10 7 7 8 8 11 12 15 6 6 7 6 7 7 7 6 7 7 8 8
17 18 13 13 15 13 5 19 7 16 4 8 11 12 16 7 5 9 18 19 16 14 9 8 13 12 11 9 11 13 11 13 11 8 4 4 6 7 8 8 8 7 7 7
15 15 16 15 6 2 1 22 3 6 4 7 11 10 11 10 11 15 15 15 14 12 9 10 10 11 12 9 12 14 10 9 6 5 2 7 7 5 6 7 6 6 5 6
11 10 11 16 13 9 8 25 3 6 5 3 13 16 19 20 18 15 14 14 13 12 9 12 12 10 11 9 11 11 10 7 5 5 8 6 3 6 5 4 4 5 4 7
1 10 5 6 3 9 12 16 10 22 13 4 13 13 17 18 17 16 14 14 14 14 12 11 10 10 9 9 9 10 7 5 4 6 4 2 5 3 3 4 2 4 8 8
7 7 6 5 4 5 9 9 8 9 8 10 14 12 14 17 17 15 14 13 13 13 12 13 9 9 10 9 9 7 5 4 5 4 4 2 5 1 1 3 5 5 6 7
6 6 0 8 8 7 12 16 7 5 4 13 16 14 14 14 15 15 13 13 12 10 10 9 10 10 10 8 8 7 5 3 5 4 4 3 3 2 2 3 3 5 5 3
3 12 8 5 16 16 13 13 5 5 4 11 16 17 15 13 13 13 12 10 10 11 9 9 11 11 10 9 8 6 5 4 3 3 3 2 3 3 3 3 4 7 6 7
Wind_Direction
218 229 233 236 240 109 262 199 206 232 91 251 284 154 172 220 194 140 142 105 356 301 185 162 180 159 152 153 162 179 189 186 216 198 187 207 212 223 230 335 58 355 345 313
230 221 234 241 251 10 241 257 262 49 339 245 262 240 207 159 200 226 161 152 182 215 241 143 179 186 174 156 170 180 191 191 198 177 224 267 212 226 113 61 51 349 328 1
225 227 229 241 235 233 252 257 114 132 244 249 260 262 297 320 13 220 231 160 174 188 161 162 174 187 174 159 160 171 180 173 170 240 201 202 347 24 83 197 190 190 283 295
226 242 221 230 250 48 275 232 355 204 241 257 198 260 237 101 217 266 211 194 185 148 159 184 165 178 168 153 151 159 168 151 164 183 184 230 239 259 208 229 131 191 211 234
230 229 245 214 238 188 235 46 247 284 258 261 207 249 156 129 30 329 259 198 226 148 158 141 161 167 155 142 144 139 159 156 167 165 254 162 263 271 244 259 130 224 198 233
240 229 233 251 243 241 221 181 238 255 252 256 246 205 172 166 167 214 237 198 196 159 142 160 137 141 130 143 143 146 151 157 184 180 177 202 273 285 341 353 318 311 313 48
229 247 241 236 249 235 236 251 240 239 230 60 39 27 279 166 195 173 159 180 153 143 123 117 111 114 129 141 144 143 146 160 171 169 169 165 191 217 260 242 350 344 342 26
218 216 243 218 231 231 225 230 245 240 66 307 132 207 248 182 133 150 151 147 147 140 126 134 124 122 141 144 153 144 149 150 160 174 144 128 140 223 30 53 19 324 20 18
208 229 212 223 223 236 259 260 254 263 203 255 252 256 233 135 135 156 157 143 148 149 125 133 145 144 156 150 153 144 154 159 170 156 113 107 157 34 49 39 7 24 33 2
256 262 206 191 216 231 212 249 252 272 173 221 231 131 132 133 165 182 159 152 150 136 147 138 149 147 147 156 153 148 151 167 170 134 139 157 152 71 103 108 64 46 46 6
250 262 252 205 201 219 224 233 266 260 270 291 251 118 83 87 324 159 168 166 154 142 161 144 133 123 141 137 146 145 166 159 163 129 167 128 173 117 240 153 122 101 52 336
223 253 255 249 196 212 235 217 214 239 217 256 278 148 39 329 259 160 171 180 156 146 158 136 132 134 127 134 143 163 184 144 132 132 121 172 128 107 127 30 35 84 42 346
208 240 260 246 239 186 225 240 228 243 255 264 318 110 347 353 338 332 158 161 146 146 139 134 125 125 134 144 144 121 118 151 128 139 167 137 149 198 237 101 55 10 29 354
265 231 239 244 232 283 210 237 241 254 256 83 77 119 92 259 329 318 148 157 152 158 141 133 133 132 135 119 120 130 154 137 137 171 174 140 104 37 15 15 15 2 348 353
229 241 247 179 183 268 230 216 226 274 280 90 168 134 115 101 285 275 262 162 170 155 136 141 149 140 136 137 156 158 173 151 140 192 131 138 149 157 12 13 0 341 333 328
216 233 241 258 211 270 304 202 251 245 298 115 150 122 168 199 199 268 218 153 161 131 134 138 140 146 156 154 166 178 176 149 145 176 148 134 171 27 342 349 343 324 317 321
216 223 232 220 169 245 265 212 222 193 317 289 183 157 169 170 305 260 161 167 154 139 143 159 148 151 147 145 168 179 158 149 156 165 166 173 215 307 10 339 314 340 344 337
205 219 228 242 154 233 229 247 182 149 175 254 91 137 156 150 218 148 153 165 156 144 137 146 134 157 168 172 173 169 128 111 92 289 271 46 17 10 350 349 6 12 1 350
188 210 221 237 231 194 263 217 182 253 233 118 215 138 121 121 119 104 119 115 115 115 119 137 140 148 94 91 90 88 72 62 351 4 15 34 36 11 4 14 20 6 354 346
215 195 217 224 251 235 249 336 16 134 199 280 58 77 132 162 168 104 87 89 98 109 121 150 128 107 112 114 93 101 113 107 84 51 301 1 38 32 337 24 16 4 356 345
228 189 206 228 213 93 116 293 37 143 30 45 68 73 62 70 102 107 102 105 104 110 125 110 107 89 84 90 94 105 102 97 117 179 129 51 33 327 49 28 357 337 326 299
236 209 208 216 209 125 32 243 198 154 345 83 89 98 103 109 113 118 116 114 119 115 117 86 91 94 92 97 100 95 85 86 73 61 54 44 13 32 14 4 299 297 322 17
150 1 89 33 5 320 336 319 328 137 162 76 100 115 118 121 123 124 120 128 130 121 113 111 114 110 101 102 99 101 92 87 85 77 84 69 86 16 11 287 358 23 47 23
339 359 102 159 274 22 339 298 286 342 109 118 109 116 123 126 129 128 134 139 134 142 136 125 139 124 114 107 101 98 105 86 87 96 95 22 117 44 51 20 47 48 50 23
22 309 209 89 200 141 232 242 237 239 179 123 121 129 124 135 137 142 147 140 146 150 138 140 134 133 123 115 106 101 83 107 113 101 106 323 132 115 34 79 58 81 71 83
326 3 3 326 183 196 172 202 172 198 160 141 144 139 148 151 149 146 146 147 136 139 136 138 132 131 130 123 109 99 102 85 55 111 81 73 345 40 39 12 118 52 132 160